[[{"header":{"parameterUnit":"m.s-1","parameterCategory":1,"la1":30.2992,"la2":30.254,"lo1":-89.0895,"lo2":-89.0443,"dy":0.0025,"dx":0.0025,"nx":19,"ny":19,"refTime":"2026-04-21T09:00:00:Z","depth":0,"parameterNumber":2,"parameterNumberName":"U-component_of_WINDS"},"data":[0,0,0,-4.4532,-4.4534,-4.4593,-4.4593,-4.4673,-4.4673,0,0,0,0,0,0,0,0,0,0,0,-4.4518,-4.4519,-4.4532,-4.4534,-4.4593,-4.4593,-4.4672,-4.4673,0,0,0,0,0,0,0,0,0,0,0,-4.4518,-4.4519,-4.452,-4.4534,-4.4593,-4.4593,-4.4672,-4.4626,0,0,0,0,0,0,0,0,0,0,-4.4568,-4.4558,-4.4519,-4.452,-4.4534,-4.4593,-4.4593,-4.4624,-4.4629,-4.4648,0,-4.4667,0,-4.4672,-4.4679,-4.4679,0,0,0,-4.4531,-4.4554,-4.4567,-4.452,-4.4535,-4.4592,-4.4565,-4.4627,-4.4632,-4.4655,-4.4668,-4.4671,-4.4673,-4.468,-4.468,-4.4804,-4.4804,0,0,-4.4527,-4.453,-4.4563,-4.4571,-4.4564,-4.4563,-4.4567,-4.463,-4.4644,-4.4668,-4.4673,-4.4674,-4.468,-4.4681,-4.4803,-4.4804,0,0,0,-4.452,-4.4528,-4.4539,-4.4568,-4.4579,-4.4565,-4.4569,-4.4641,-4.4645,-4.4673,-4.4675,-4.4681,-4.4682,-4.4802,-4.4803,-4.484,0,0,0,-4.4518,-4.4524,-4.4538,-4.454,-4.4578,-4.4611,-4.4579,-4.464,-4.4647,-4.4675,-4.4681,-4.4683,-4.4801,-4.4803,-4.4837,-4.4855,0,0,0,-4.4513,-4.4523,-4.4533,-4.454,-4.4566,-4.4609,-4.4617,-4.4642,-4.4649,-4.4679,-4.4683,-4.4801,-4.4802,-4.4835,-4.4851,-4.4887,0,0,0,-4.4508,-4.4564,-4.4534,-4.4598,-4.4566,-4.4633,-4.4616,-4.4666,-4.4697,-4.4681,-4.4801,-4.4803,-4.4834,-4.4849,-4.4884,-4.4915,-4.4929,0,0,-4.458,-4.4573,-4.4611,-4.4585,-4.4659,-4.4624,-4.4703,-4.4728,-4.4729,-4.4778,-4.4781,-4.4838,-4.4851,-4.4886,-4.5013,-4.5024,0,0,0,-4.4634,-4.4661,-4.468,-4.4711,-4.4733,-4.4753,-4.4767,-4.4777,-4.4819,-4.4755,-4.4862,-4.487,-4.489,-4.4905,-4.4914,-4.493,-4.4811,-4.4811,-4.4811,-4.4736,-4.4736,-4.4798,-4.4805,-4.4835,-4.485,-4.4874,-4.489,-4.4879,-4.4905,-4.4918,-4.4995,-4.5012,-4.5019,-4.5036,-4.4937,-4.4937,-4.4938,-4.4938,-4.4839,-4.4875,-4.4864,-4.4919,-4.4918,-4.4964,-4.4982,-4.4973,-4.5015,-4.4984,-4.5002,-4.4965,-4.5031,-4.5046,-4.494,-4.494,-4.494,-4.4939,-4.4939,-4.4903,-4.492,-4.4933,-4.4979,-4.5014,-4.5021,-4.5062,-4.506,-4.5059,-4.5077,-4.509,-4.5089,-4.5085,-4.5084,-4.5085,-4.5085,-4.5085,-4.5085,-4.5085,-4.4961,-4.4976,-4.5011,-4.5042,-4.5063,-4.5089,-4.5108,-4.5127,-4.5148,-4.5143,-4.5143,-4.5129,-4.5039,-4.5014,-4.5089,-4.5089,-4.5088,-4.5088,-4.5087,-4.5058,-4.5037,-4.5092,-4.5113,-4.515,-4.5184,-4.5184,-4.5225,-4.5241,-4.5261,-4.5246,-4.5181,-4.5172,-4.5164,-4.5143,-4.5247,-4.5247,-4.5247,-4.5247,-4.5109,-4.5107,-4.5163,-4.5196,-4.5229,-4.5235,-4.5296,-4.5312,-4.5325,-4.5335,-4.5321,-4.5295,-4.5287,-4.5283,-4.5273,-4.5253,-4.5382,-4.5382,-4.5383,-4.5167,-4.5169,-4.522,-4.5235,-4.5265,-4.529,-4.5347,-4.5385,-4.5396,-4.5388,-4.5342,-4.5336,-4.5294,-4.5281,-4.5267,-4.5251,-4.5215,0,0]},{"header":{"parameterUnit":"m.s-1","parameterCategory":1,"la1":30.2992,"la2":30.254,"lo1":-89.0895,"lo2":-89.0443,"dy":0.0025,"dx":0.0025,"nx":19,"ny":19,"refTime":"2026-04-21T09:00:00:Z","depth":0,"parameterNumber":3,"parameterNumberName":"V-component_of_WINDS"},"data":[0,0,0,4.3379,4.3383,4.359,4.3591,4.3819,4.382,0,0,0,0,0,0,0,0,0,0,0,4.3296,4.3297,4.3378,4.3383,4.359,4.3591,4.3818,4.382,0,0,0,0,0,0,0,0,0,0,0,4.3296,4.3297,4.3298,4.3384,4.359,4.3591,4.3818,4.3674,0,0,0,0,0,0,0,0,0,0,4.3479,4.3383,4.3297,4.3298,4.3385,4.359,4.3592,4.3668,4.3683,4.3709,0,4.3729,0,4.3778,4.3833,4.3834,0,0,0,4.3398,4.337,4.3446,4.3298,4.3386,4.3589,4.3501,4.3677,4.3694,4.3729,4.3732,4.3742,4.3782,4.3835,4.3836,4.3943,4.3942,0,0,4.3386,4.3322,4.3434,4.3456,4.3424,4.3494,4.3507,4.3688,4.3686,4.3733,4.3748,4.3786,4.3836,4.3837,4.3943,4.3943,0,0,0,4.3343,4.3313,4.3385,4.3445,4.3486,4.35,4.3515,4.3678,4.3707,4.375,4.3788,4.3837,4.3839,4.3943,4.3943,4.3873,0,0,0,4.3337,4.3288,4.3379,4.3341,4.3482,4.3585,4.35,4.3694,4.3717,4.3787,4.3837,4.3841,4.3944,4.3943,4.3875,4.3849,0,0,0,4.329,4.3283,4.3306,4.3337,4.3425,4.3584,4.3624,4.3701,4.3739,4.3834,4.3842,4.3944,4.3943,4.3877,4.3853,4.386,0,0,0,4.322,4.3238,4.3304,4.3339,4.3423,4.3539,4.3623,4.3712,4.3785,4.3838,4.3944,4.3943,4.3878,4.3856,4.3862,4.3854,4.3845,0,0,4.3207,4.3234,4.326,4.3325,4.3414,4.3513,4.3591,4.3717,4.3783,4.3885,4.3889,4.3874,4.3854,4.3861,4.3815,4.3807,0,0,0,4.3234,4.3252,4.329,4.3358,4.3457,4.354,4.3662,4.3709,4.3799,4.3823,4.388,4.387,4.3877,4.3876,4.3869,4.3879,4.394,4.394,4.394,4.3122,4.3209,4.3259,4.3371,4.3435,4.3563,4.3623,4.3708,4.3774,4.3786,4.3817,4.3779,4.3776,4.3771,4.3781,4.3819,4.3819,4.3819,4.3819,4.3112,4.3151,4.3242,4.3323,4.3414,4.3482,4.3604,4.365,4.3725,4.3762,4.3773,4.3806,4.376,4.3773,4.3814,4.3815,4.3816,4.3816,4.3816,4.3048,4.3082,4.3142,4.3251,4.3325,4.3438,4.3507,4.3587,4.3662,4.3672,4.3714,4.3715,4.3727,4.3687,4.3686,4.3686,4.3686,4.3686,4.3686,4.2959,4.3028,4.3078,4.3187,4.3243,4.3325,4.3454,4.351,4.3593,4.3645,4.3646,4.3711,4.374,4.3745,4.3684,4.3685,4.3685,4.3685,4.3685,4.2916,4.2939,4.3016,4.3072,4.3207,4.3276,4.3378,4.3486,4.3544,4.3575,4.364,4.3648,4.368,4.3686,4.3691,4.362,4.362,4.362,4.362,4.2863,4.2888,4.2987,4.3071,4.3162,4.3263,4.3347,4.3447,4.3554,4.3595,4.3617,4.3631,4.3633,4.3665,4.3671,4.3678,4.3605,4.3605,4.3605,4.2842,4.288,4.2937,4.3045,4.3157,4.3251,4.3332,4.3424,4.3549,4.3606,4.3629,4.363,4.3653,4.3657,4.3712,4.372,4.3733,0,0]}]]